Wind_Speed
11 11 11 11 11 11 13 13 14 14 14 15 15 15 14 13 6 9 10 15 12 14 11 10 11 10 8 10 11 11 10 9 9
10 10 10 10 11 11 11 12 12 12 13 13 13 13 13 12 10 8 10 12 16 15 13 12 12 11 11 12 12 12 12 11 10
10 10 10 11 11 11 11 11 11 11 11 11 11 11 10 7 6 8 6 14 18 15 12 12 12 13 13 12 12 13 14 13 13
11 10 10 10 11 11 12 11 11 12 12 12 12 11 10 8 7 6 8 14 15 13 13 13 13 12 12 12 13 14 14 14 13
11 11 11 11 11 11 12 12 12 12 12 12 12 11 10 6 8 5 13 12 11 12 13 14 15 14 14 12 12 13 13 13 14
12 11 12 12 12 12 11 11 11 11 11 10 10 9 5 7 6 6 15 12 12 12 12 13 14 14 15 15 15 15 15 14 14
10 11 11 10 11 11 11 10 10 9 8 8 9 6 8 6 7 10 13 12 13 14 14 15 15 15 16 15 15 15 15 15 14
9 8 10 11 11 10 10 10 10 10 9 8 6 8 7 5 5 13 11 10 10 11 14 16 17 17 17 17 17 18 18 18 18
9 9 11 12 12 12 11 10 11 10 10 10 9 7 7 6 5 13 9 8 9 10 11 12 13 13 13 14 15 18 19 20 22
9 10 11 11 12 12 11 11 10 9 9 9 9 7 6 5 4 10 9 8 8 8 8 8 9 9 9 8 11 14 16 16 18
11 11 11 12 12 12 12 11 11 10 10 10 9 7 6 4 3 3 10 7 7 7 7 7 7 6 6 6 6 11 13 13 14
12 12 12 12 11 11 11 11 11 10 10 9 9 7 5 4 6 6 5 10 7 8 8 9 9 9 9 10 10 10 11 10 10
11 11 11 12 12 12 12 12 12 11 12 11 9 8 7 6 6 7 6 9 10 10 9 9 10 10 10 11 11 12 12 10 5
10 11 11 12 12 12 13 13 13 13 13 13 11 11 7 7 7 7 8 9 9 11 12 12 12 12 12 13 13 14 13 11 8
11 11 11 11 12 12 12 13 13 14 15 15 12 12 9 9 7 8 10 12 13 13 14 12 13 12 14 15 15 15 15 13 11
12 12 12 12 12 12 13 13 14 13 14 15 12 11 10 8 7 9 10 14 14 13 13 13 14 16 17 17 17 17 16 15 14
14 13 13 13 13 13 14 14 14 13 15 14 11 7 8 9 9 12 13 14 14 14 16 17 17 19 18 18 17 17 16 15 14
16 16 16 15 15 14 15 15 15 15 14 13 8 5 4 16 6 15 13 13 15 16 18 20 20 19 18 18 18 16 15 15 14
17 16 17 17 16 16 16 16 16 16 15 14 11 11 13 6 10 9 16 18 17 20 20 20 22 19 20 20 18 17 16 16 15
15 16 16 17 17 17 17 17 18 17 17 16 15 15 15 15 14 18 13 16 19 23 23 21 20 23 20 19 21 19 19 18 17
Wind_Direction
316 313 309 305 299 293 287 287 289 289 287 285 283 282 282 284 302 293 294 304 270 286 285 279 276 278 278 277 283 290 297 306 307
323 315 311 307 303 301 299 298 295 293 292 292 290 286 283 282 283 277 279 279 273 281 286 284 283 283 280 277 281 284 287 289 298
325 323 319 315 310 306 302 300 301 299 297 294 295 296 294 281 298 278 283 264 269 279 286 287 285 284 279 277 279 280 281 281 279
332 328 323 319 315 312 310 309 306 302 301 299 297 295 293 287 283 281 264 264 271 272 273 274 280 286 284 281 279 279 280 279 277
341 336 333 328 325 324 322 319 314 309 304 300 298 297 298 304 289 301 265 269 274 272 271 268 271 275 278 281 282 284 283 281 274
337 339 337 337 336 334 333 331 328 325 317 312 313 309 307 298 296 286 268 275 270 272 276 279 278 277 277 277 277 277 279 278 277
336 338 338 337 339 333 337 338 336 347 347 331 340 325 302 307 298 277 279 278 269 266 268 271 271 271 272 273 274 275 274 274 275
345 343 340 342 340 339 337 343 338 340 336 330 329 325 328 313 301 277 291 284 277 268 264 267 272 276 279 279 277 273 269 269 270
350 347 346 344 345 339 340 341 338 336 332 329 328 323 323 319 304 295 303 282 278 277 282 286 285 285 284 281 276 275 273 271 271
356 346 349 347 346 344 344 343 340 336 330 328 325 325 317 320 308 287 302 294 284 280 282 286 290 292 299 304 286 279 278 278 276
356 350 351 351 349 347 347 349 348 344 341 340 332 329 330 320 308 266 304 300 297 295 295 289 292 284 290 301 306 293 292 292 290
354 351 350 348 347 346 348 348 347 343 339 336 330 326 304 302 304 289 274 309 298 298 298 297 294 292 285 283 288 293 296 302 303
352 347 344 343 344 347 349 348 350 343 338 335 321 317 309 291 284 286 280 287 294 303 303 304 303 300 298 299 299 303 307 307 317
343 342 342 343 344 349 352 350 350 348 343 340 326 316 290 277 284 278 285 290 289 297 304 306 302 301 299 297 296 297 299 302 290
328 333 336 340 341 343 345 345 346 345 345 342 330 318 297 294 284 284 299 298 299 299 302 303 301 295 294 290 289 287 287 286 278
314 319 324 330 332 333 335 337 339 339 340 348 329 308 313 296 278 290 293 291 297 296 293 294 297 299 300 295 292 291 289 284 274
303 306 309 315 319 323 325 327 330 334 333 340 351 337 304 321 307 286 285 289 296 303 303 303 305 303 301 300 295 293 290 288 286
299 300 300 301 305 310 315 321 324 323 326 327 328 329 312 305 299 300 303 293 297 299 297 302 303 302 300 300 296 293 291 288 285
300 300 296 294 296 300 306 313 318 318 317 311 310 290 283 297 309 289 308 302 296 296 292 297 301 301 301 295 289 290 287 285 283
299 306 304 298 294 295 300 306 311 314 311 306 298 293 292 283 269 292 288 282 300 299 299 296 292 297 298 293 290 289 287 285 284
Height
1533 1532 1531 1530 1529 1528 1527 1527 1526 1526 1525 1525 1525 1525 1525 1525 1526 1528 1529 1528 1525 1525 1525 1524 1525 1524 1524 1525 1525 1525 1525 1524 1524
1533 1531 1530 1529 1527 1526 1525 1525 1524 1524 1523 1523 1522 1522 1523 1523 1524 1525 1526 1525 1523 1523 1522 1522 1522 1522 1522 1522 1522 1523 1523 1523 1523
1532 1530 1529 1528 1527 1525 1524 1523 1523 1522 1521 1520 1520 1520 1520 1521 1523 1523 1523 1521 1520 1520 1520 1520 1520 1520 1520 1520 1520 1520 1521 1521 1521
1531 1530 1528 1527 1526 1525 1523 1523 1522 1521 1520 1519 1518 1518 1518 1519 1520 1519 1520 1517 1518 1517 1517 1517 1517 1517 1517 1517 1517 1517 1518 1518 1519
1530 1529 1528 1526 1525 1523 1522 1521 1520 1519 1518 1517 1517 1516 1516 1516 1516 1518 1515 1515 1515 1515 1515 1514 1515 1515 1515 1515 1515 1515 1515 1515 1515
1530 1528 1527 1525 1524 1523 1521 1520 1519 1517 1516 1516 1515 1515 1515 1514 1515 1515 1512 1512 1512 1512 1512 1512 1512 1512 1512 1512 1513 1513 1512 1512 1512
1530 1528 1526 1525 1523 1521 1520 1519 1517 1516 1515 1515 1514 1513 1512 1512 1512 1511 1509 1509 1509 1509 1509 1509 1509 1509 1509 1510 1510 1510 1509 1510 1510
1529 1528 1526 1524 1523 1521 1519 1518 1517 1515 1514 1513 1513 1511 1510 1511 1511 1507 1507 1507 1507 1507 1506 1505 1505 1506 1506 1506 1506 1506 1506 1506 1506
1529 1527 1526 1524 1523 1521 1519 1518 1516 1514 1513 1512 1511 1510 1509 1509 1509 1505 1505 1504 1505 1504 1504 1503 1503 1503 1502 1502 1502 1502 1502 1502 1503
1528 1527 1525 1523 1522 1521 1519 1517 1515 1513 1512 1510 1509 1508 1508 1508 1507 1505 1503 1503 1502 1502 1501 1501 1501 1500 1500 1499 1499 1498 1498 1498 1499
1528 1527 1524 1523 1521 1520 1518 1516 1514 1513 1511 1509 1508 1507 1507 1506 1505 1504 1500 1501 1500 1500 1499 1499 1498 1498 1497 1497 1496 1495 1495 1495 1495
1528 1526 1525 1522 1520 1519 1518 1516 1514 1512 1510 1508 1507 1505 1505 1504 1503 1502 1500 1498 1499 1498 1497 1497 1496 1495 1495 1494 1493 1493 1492 1492 1492
1528 1526 1524 1522 1520 1518 1517 1515 1513 1511 1509 1507 1505 1504 1502 1501 1500 1499 1498 1497 1497 1496 1495 1495 1494 1493 1493 1492 1491 1490 1490 1489 1489
1527 1525 1524 1522 1521 1518 1516 1515 1513 1511 1509 1506 1504 1502 1501 1500 1499 1498 1497 1496 1495 1494 1493 1493 1492 1491 1490 1489 1488 1488 1487 1487 1487
1526 1525 1523 1521 1520 1518 1516 1514 1513 1510 1508 1506 1503 1501 1499 1498 1497 1497 1495 1494 1493 1492 1491 1489 1488 1488 1486 1485 1485 1484 1484 1484 1483
1525 1523 1522 1520 1519 1517 1515 1514 1512 1510 1508 1504 1503 1500 1498 1497 1496 1495 1494 1493 1490 1489 1487 1486 1485 1484 1483 1482 1481 1481 1480 1480 1479
1523 1522 1520 1519 1518 1516 1514 1512 1510 1509 1507 1505 1502 1501 1500 1496 1495 1495 1492 1490 1488 1487 1485 1484 1483 1481 1480 1478 1478 1477 1476 1475 1475
1521 1520 1518 1517 1515 1514 1512 1510 1509 1507 1506 1504 1504 1502 1499 1496 1493 1492 1490 1489 1486 1484 1482 1480 1478 1477 1476 1474 1473 1473 1472 1472 1471
1518 1517 1515 1514 1513 1512 1510 1508 1506 1505 1504 1503 1501 1501 1499 1496 1492 1490 1488 1486 1484 1482 1479 1477 1475 1473 1472 1471 1470 1469 1469 1468 1467
1515 1514 1512 1511 1510 1509 1507 1505 1504 1502 1501 1500 1499 1497 1495 1494 1492 1486 1486 1485 1481 1478 1475 1473 1471 1469 1468 1467 1466 1465 1465 1464 1463